COSMOS 1691 DEB, 16272

Orbit data source: Space-Track

COSMOS 1691 DEB, 16272 is space debris in LEO originally from a launch on Wed, 09 Oct 1985 UTC launched from the Plesetsk Missile And Space Complex (PKMTR). Debris objects in space refer to the collection of defunct objects orbiting the Earth. Examples of debris include non-operational satellites, rocket bodies, and fragments generated from explosions, collisions, or faulty payload assembly.

Loading next visibility...
Identifier
16272, 1985-094R
Orbit
LEO
Country
Flag of CISCIS
Related business
Manufacturer
Unknown
Mission
Spacecraft
Bus & Motor
Unknown
Mass
Unknown
Launch date (UTC)
1985-10-09 (41 years ago)
Launch vehicle
Unknown
Launch site
Plesetsk Missile And Space Complex (PKMTR)
Object type
Payload
Rocket body
Debris
Shape & HBR
Unknown shape, 0.1 m
Radar Cross Section
Small (<0.1 m²)

Expand to show TLE details & history
Last TLE update: 10 hours ago

TLE from 10 hours ago
0 COSMOS 1691 DEB
1 16272U 85094R   26127.07704466  .00000226  00000-0  10009-2 0  9998
2 16272  82.6170 163.2193 0045480  58.4505   4.8271 12.75278734882777
Epoch: 2026-05-07T01:50Z
TLE epoch observation values (Epoch: 2026-05-07T01:50:56.658Z)
Latitude
62.47735°
Longitude
-75.11954°
Altitude
1,336.122 km
Speed
7.212 km/s
True Right ascension
11h 50m 10s
True Declination
62° 20' 48"
Sunlit
Object was in daylight at epoch
Visualization orbit readout
Latitude
Unknown
Longitude
Unknown
Altitude
Unknown
Speed
Unknown
Apparent Right ascension
Unknown
Apparent Declination
Unknown
Sunlit
N/A
Visualization observer readout
Local Sidereal Time
19:54:20
Azimuth
Unknown
Elevation
Unknown
Doppler factor
Unknown
Orbital elements
Apogee altitude
1,392.995 km
Perigee altitude
1,322.629 km
Semi-major axis
7,735.949 km
Eccentricity
0.00455
Inclination
82.617°
RAAN
163.2193°
Arg. of periapsis
58.4505°
True anomaly
4.87121°
Mean anomaly
4.8271°
Eccentric anomaly
4.84913°
Mean motion
3.18987 °/min
Orbital period
112.86 mins
BSTAR
0.0010009
Loading maneuver chart data...
Computing Atmospheric mass density...
Loading historical data...
Loading historical data...
Loading historical data...
Loading historical data...
Loading historical data...
Loading historical data...
Loading historical data...

Documentation

Showing up to 5 results
|